This demonstration page uses our WeatherBlox Daily Observations layout. Learn more.

Left ArrowRight Arrow

Hourly Observations for August 10, 2022

Temp ( °F °C ) Dew Point ( °F °C ) Humidity (%) Winds ( mph kmh ) Pressure ( in mb ) Visibility ( mi km ) Precip ( " mm )
12:51 am 00:51 Mostly Cloudy with Light Rain 71 21.7 68 20 90 90 ENE 3 6 29.99 1016 10 16 0.01 0.13
1:51 am 01:51 Mostly Clear 70 21.1 69 20.6 97 97 ESE 7 11 29.98 1015 10 16 0.01 0.25
2:51 am 02:51 Clear 70 21.1 70 21.1 100 100 SSE 5 7 29.97 1015 10 16 0.00 0.00
3:51 am 03:51 Clear 69 20.6 69 20.6 100 100 N 6 9 29.98 1015 10 16 0.00 0.00
4:51 am 04:51 Clear 68 20 68 20 100 100 W 3 6 29.98 1015 10 16 0.00 0.00
5:51 am 05:51 Sunny 67 19.4 67 19.4 100 100 E 6 9 30.00 1016 10 16 0.00 0.00
6:51 am 06:51 Sunny 71 21.7 68 20 90 90 ESE 7 11 30.02 1017 10 16 0.00 0.00
7:51 am 07:51 Sunny 73 22.8 68 20 84 84 SE 7 11 30.03 1017 10 16 0.00 0.00
8:51 am 08:51 Sunny 76 24.4 66 18.9 71 71 VRB 3 6 30.03 1017 10 16 0.00 0.00
9:51 am 09:51 Sunny 81 27.2 66 18.9 61 61 VRB 6 9 30.02 1017 10 16 0.00 0.00
10:51 am 10:51 Sunny 83 28.3 65 18.3 55 55 S 3 6 30.01 1016 10 16 0.00 0.00
11:51 am 11:51 Sunny 85 29.4 67 19.4 55 55 VRB 5 7 29.98 1015 10 16 0.00 0.00
12:51 pm 12:51 Sunny 88 31.1 67 19.4 50 50 S 8 13 29.96 1014 10 16 0.00 0.00
1:51 pm 13:51 Sunny 91 32.8 66 18.9 44 44 S 12 19 29.93 1013 10 16 0.00 0.00
2:51 pm 14:51 Sunny 93 33.9 65 18.3 40 40 S 9 15 29.89 1012 10 16 0.00 0.00
3:51 pm 15:51 Sunny with Nearby Thunderstorms 93 33.9 62 16.7 36 36 S 10 17 29.87 1012 10 16 0.00 0.00
4:10 pm 16:10 Sunny 94 34.4 62 16.7 35 35 SE 8 13 29.76 1008 10 16 0.00 0.00
4:51 pm 16:51 Sunny 91 32.8 61 16.1 37 37 ENE 16 26 29.88 1012 10 16 0.00 0.00
4:58 pm 16:58 Sunny 90 32.2 61 16.1 38 38 ENE 17 28 29.78 1008 10 16 0.00 0.00
5:51 pm 17:51 Sunny 89 31.7 60 15.6 38 38 ENE 10 17 29.88 1012 10 16 0.00 0.00
6:05 pm 18:05 Sunny with Nearby Thunderstorms 89 31.7 60 15.6 38 38 E 9 15 29.78 1009 10 16 0.00 0.00
6:51 pm 18:51 Sunny with Nearby Thunderstorms 88 31.1 59 15 38 38 SSE 13 20 29.91 1013 10 16 0.00 0.00
7:38 pm 19:38 Mostly Cloudy with Thunderstorms 85 29.4 60 15.6 43 43 SE 8 13 29.85 1011 10 16 0.00 0.00
7:51 pm 19:51 Partly Cloudy with Thunderstorms 85 29.4 60 15.6 43 43 Calm 29.94 1014 10 16 0.00 0.00
8:21 pm 20:21 Mostly Clear with Nearby Thunderstorms 83 28.3 60 15.6 46 46 NNE 5 7 29.87 1011 10 16 0.00 0.00
8:34 pm 20:34 Clear 83 28.3 60 15.6 46 46 N 7 11 29.89 1012 10 16 0.00 0.00
8:51 pm 20:51 Clear 82 27.8 59 15 46 46 NW 8 13 29.96 1015 10 16 0.00 0.00
9:51 pm 21:51 Clear 79 26.1 63 17.2 58 58 Calm 29.97 1015 10 16 0.00 0.00
10:26 pm 22:26 Clear with Nearby Thunderstorms 77 25 65 18.3 66 66 NW 5 7 29.93 1014 10 16 0.00 0.00
10:41 pm 22:41 Clear 77 25 65 18.3 66 66 NNW 7 11 29.93 1014 10 16 0.00 0.00
10:51 pm 22:51 Clear 77 25 65 18.3 66 66 NNW 6 9 29.96 1015 10 16 0.00 0.00
11:51 pm 23:51 Clear 75 23.9 66 18.9 74 74 WNW 13 20 29.98 1015 10 16 0.00 0.00

Powered by AerisWeather